TimeEDT,TemperatureF,Dew PointF,Humidity,Sea Level PressureIn,VisibilityMPH,Wind Direction,Wind SpeedMPH,Gust SpeedMPH,PrecipitationIn,Events,Conditions,WindDirDegrees,DateUTC
12:54 AM,66.9,64.9,93,30.17,4.0,Calm,Calm,-,N/A,,Clear,0,2013-05-19 04:54:00
12:57 AM,66.2,64.4,94,30.17,1.8,Calm,Calm,-,N/A,,Clear,0,2013-05-19 04:57:00
1:15 AM,66.2,64.4,94,30.16,0.8,Calm,Calm,-,N/A,,Clear,0,2013-05-19 05:15:00
1:18 AM,66.2,64.4,94,30.16,1.8,Calm,Calm,-,N/A,,Partly Cloudy,0,2013-05-19 05:18:00
1:25 AM,66.2,64.4,94,30.16,6.0,Calm,Calm,-,N/A,,Partly Cloudy,0,2013-05-19 05:25:00
1:36 AM,66.2,64.4,94,30.16,1.2,Calm,Calm,-,N/A,,Partly Cloudy,0,2013-05-19 05:36:00
1:39 AM,66.2,64.4,94,30.16,0.5,Calm,Calm,-,N/A,Fog,Fog,0,2013-05-19 05:39:00
1:54 AM,66.0,64.9,96,30.16,0.5,Calm,Calm,-,N/A,Fog,Fog,0,2013-05-19 05:54:00
1:57 AM,64.4,64.4,100,30.16,1.0,Calm,Calm,-,N/A,,Mist,0,2013-05-19 05:57:00
2:02 AM,66.2,64.4,94,30.16,3.0,Calm,Calm,-,N/A,,Mostly Cloudy,0,2013-05-19 06:02:00
2:13 AM,64.4,64.4,100,30.16,4.0,Calm,Calm,-,N/A,,Scattered Clouds,0,2013-05-19 06:13:00
2:15 AM,66.2,64.4,94,30.16,1.2,Calm,Calm,-,N/A,,Scattered Clouds,0,2013-05-19 06:15:00
2:17 AM,66.2,64.4,94,30.16,0.5,Calm,Calm,-,N/A,Fog,Fog,0,2013-05-19 06:17:00
2:28 AM,64.4,62.6,94,30.15,0.8,Calm,Calm,-,N/A,,Mostly Cloudy,0,2013-05-19 06:28:00
2:31 AM,64.4,62.6,94,30.15,2.5,Calm,Calm,-,N/A,,Mostly Cloudy,0,2013-05-19 06:31:00
2:37 AM,64.4,62.6,94,30.15,7.0,Calm,Calm,-,N/A,,Overcast,0,2013-05-19 06:37:00
2:54 AM,66.0,64.0,93,30.15,7.0,Calm,Calm,-,N/A,,Overcast,0,2013-05-19 06:54:00
3:21 AM,66.2,64.4,94,30.15,1.8,Calm,Calm,-,N/A,,Mostly Cloudy,0,2013-05-19 07:21:00
3:49 AM,66.2,64.4,94,30.14,2.0,Calm,Calm,-,N/A,,Mostly Cloudy,0,2013-05-19 07:49:00
3:54 AM,66.9,64.9,93,30.14,3.0,Calm,Calm,-,N/A,,Mostly Cloudy,0,2013-05-19 07:54:00
4:04 AM,66.2,64.4,94,30.14,5.0,Calm,Calm,-,N/A,,Scattered Clouds,0,2013-05-19 08:04:00
4:54 AM,64.9,63.0,93,30.14,3.0,Calm,Calm,-,N/A,,Clear,0,2013-05-19 08:54:00
4:58 AM,64.4,62.6,94,30.14,0.8,Calm,Calm,-,N/A,,Clear,0,2013-05-19 08:58:00
5:05 AM,64.4,62.6,94,30.15,0.8,Calm,Calm,-,N/A,,Mist,0,2013-05-19 09:05:00
5:07 AM,64.4,62.6,94,30.15,1.5,Calm,Calm,-,N/A,,Scattered Clouds,0,2013-05-19 09:07:00
5:09 AM,64.4,62.6,94,30.15,4.0,Calm,Calm,-,N/A,,Mostly Cloudy,0,2013-05-19 09:09:00
5:16 AM,64.4,62.6,94,30.15,1.8,Calm,Calm,-,N/A,,Mostly Cloudy,0,2013-05-19 09:16:00
5:30 AM,64.4,62.6,94,30.15,3.0,Calm,Calm,-,N/A,,Mostly Cloudy,0,2013-05-19 09:30:00
5:37 AM,64.4,62.6,94,30.15,2.5,Calm,Calm,-,N/A,,Partly Cloudy,0,2013-05-19 09:37:00
5:44 AM,64.4,62.6,94,30.15,4.0,Calm,Calm,-,N/A,,Partly Cloudy,0,2013-05-19 09:44:00
5:54 AM,66.0,63.0,90,30.16,7.0,Calm,Calm,-,N/A,,Clear,0,2013-05-19 09:54:00
6:54 AM,66.9,64.0,90,30.17,6.0,Calm,Calm,-,N/A,,Clear,0,2013-05-19 10:54:00
8:54 AM,73.9,69.1,85,30.19,10.0,SSE,3.5,-,N/A,,Clear,160,2013-05-19 12:54:00
9:54 AM,77.0,68.0,74,30.19,10.0,South,3.5,-,N/A,,Partly Cloudy,190,2013-05-19 13:54:00
10:54 AM,79.0,66.9,66,30.19,10.0,South,5.8,-,N/A,,Partly Cloudy,180,2013-05-19 14:54:00
11:54 AM,81.0,64.9,58,30.18,10.0,SSE,9.2,-,N/A,,Clear,150,2013-05-19 15:54:00
12:54 PM,81.0,64.9,58,30.17,10.0,SSE,10.4,-,N/A,,Clear,160,2013-05-19 16:54:00
1:54 PM,82.9,63.0,51,30.14,10.0,South,11.5,-,N/A,,Partly Cloudy,190,2013-05-19 17:54:00
4:54 PM,81.0,64.0,56,30.12,10.0,SSW,10.4,-,N/A,,Clear,200,2013-05-19 20:54:00
5:54 PM,81.0,64.0,56,30.13,10.0,South,11.5,17.3,N/A,,Scattered Clouds,190,2013-05-19 21:54:00
6:54 PM,78.1,64.0,62,30.13,10.0,South,9.2,19.6,N/A,,Scattered Clouds,190,2013-05-19 22:54:00
7:54 PM,75.9,64.9,69,30.14,10.0,South,5.8,-,N/A,,Mostly Cloudy,190,2013-05-19 23:54:00
8:54 PM,75.0,66.0,73,30.15,10.0,SSE,3.5,-,N/A,,Scattered Clouds,160,2013-05-20 00:54:00
9:54 PM,73.9,66.0,76,30.16,10.0,SSE,4.6,-,N/A,,Clear,160,2013-05-20 01:54:00
10:54 PM,73.0,66.9,81,30.17,10.0,SSE,5.8,-,N/A,,Clear,160,2013-05-20 02:54:00
11:54 PM,72.0,66.0,81,30.17,10.0,South,8.1,-,N/A,,Partly Cloudy,170,2013-05-20 03:54:00